Вернуться в каталог

CZ-6A DEB

АктивенSSO
NORAD 57575·DEBRIS·🇨🇳 China

Запущен Nov 11, 2022 с Taiyuan Satellite Launch Center

Loading…

Ближайшие Пролёты (ближайшие 24 часа)

TLE

СвежийSource: Space-Track

Эпоха: Sep 13, 2026, 10:43 UTC

1 57575U 22151AHS 26256.44655235  .00002370  00000-0  10774-2 0  9998
2 57575  98.8109 262.7229 0045258  44.9222 315.5603 14.22189059183807

Отслеживайте CZ-6A DEB в реальном времени с AllMySat

Download on the App Store